N141DA EDXW-EDDW

Flight info

Callsign N141DA
Flight time 0h 58m
Altitude 9000
Route OLDIP1B OLDIP DCT BADOS DCT OMWEG/N0176F080 Y348 ELSOB N125 WSN L23 GIBMA GIBMA2P
Aircraft BE36/L-BDFGLORY/S

Departure

Time 2026-05-06 20:05
Airport Westerland Sylt Airport (EDXW)

Arrival

Time 2026-05-06 21:03
Airport Bremen Airport (EDDW)
Time Latitude Longitude Altitude Speed Heading
2026-05-06 19:35 54.91242 8.32502 33 ft 0 kts 229°
2026-05-06 19:42 54.91242 8.32501 6 ft 0 kts 230°
2026-05-06 19:56 54.91217 8.32507 33 ft 8 kts 137°
2026-05-06 19:57 54.91172 8.32616 33 ft 14 kts 142°
2026-05-06 19:57 54.91098 8.32706 33 ft 12 kts 124°
2026-05-06 19:57 54.91091 8.32730 33 ft 0 kts 109°
2026-05-06 19:58 54.91082 8.32773 33 ft 10 kts 111°
2026-05-06 19:58 54.91042 8.32938 33 ft 20 kts 122°
2026-05-06 19:58 54.90917 8.33141 33 ft 30 kts 150°
2026-05-06 19:58 54.90705 8.33228 33 ft 32 kts 177°
2026-05-06 19:59 54.90518 8.33266 33 ft 24 kts 167°
2026-05-06 19:59 54.90378 8.33389 33 ft 21 kts 140°
2026-05-06 19:59 54.90293 8.33578 34 ft 18 kts 117°
2026-05-06 19:59 54.90258 8.33770 34 ft 15 kts 99°
2026-05-06 20:00 54.90246 8.33937 34 ft 13 kts 99°
2026-05-06 20:00 54.90238 8.34076 34 ft 12 kts 92°
2026-05-06 20:00 54.90249 8.34253 34 ft 17 kts 76°
2026-05-06 20:00 54.90303 8.34445 34 ft 19 kts 55°
2026-05-06 20:01 54.90396 8.34617 35 ft 20 kts 43°
2026-05-06 20:01 54.90498 8.34780 35 ft 18 kts 40°
2026-05-06 20:01 54.90524 8.34822 35 ft 0 kts 43°
2026-05-06 20:03 54.90525 8.34822 35 ft 1 kts 43°
2026-05-06 20:04 54.90548 8.34858 35 ft 9 kts 41°
2026-05-06 20:04 54.90629 8.34907 34 ft 18 kts 323°
2026-05-06 20:04 54.90879 8.34603 37 ft 72 kts 317°
2026-05-06 20:04 54.91320 8.33944 230 ft 90 kts 326°
2026-05-06 20:05 54.91791 8.33184 572 ft 94 kts 324°
2026-05-06 20:05 54.92289 8.32368 861 ft 107 kts 325°
2026-05-06 20:05 54.92877 8.31536 1279 ft 109 kts 329°
2026-05-06 20:05 54.93515 8.30806 1691 ft 113 kts 337°
2026-05-06 20:06 54.94214 8.30202 2004 ft 112 kts 339°
2026-05-06 20:06 54.94883 8.29521 2311 ft 111 kts 335°
2026-05-06 20:06 54.95524 8.28779 2618 ft 110 kts 332°
2026-05-06 20:06 54.96151 8.28021 2926 ft 109 kts 331°
2026-05-06 20:07 54.96766 8.27261 3238 ft 107 kts 330°
2026-05-06 20:07 54.97370 8.26513 3540 ft 106 kts 332°
2026-05-06 20:07 54.97964 8.25776 3850 ft 105 kts 329°
2026-05-06 20:07 54.98549 8.25007 4166 ft 107 kts 318°
2026-05-06 20:08 54.98841 8.23810 4485 ft 112 kts 273°
2026-05-06 20:08 54.98614 8.22527 4791 ft 112 kts 236°
2026-05-06 20:08 54.98167 8.21429 5099 ft 111 kts 233°
2026-05-06 20:08 54.97723 8.20338 5409 ft 110 kts 233°
2026-05-06 20:09 54.97276 8.19272 5724 ft 108 kts 233°
2026-05-06 20:09 54.96825 8.18193 5998 ft 112 kts 234°
2026-05-06 20:09 54.96367 8.17081 6264 ft 114 kts 234°
2026-05-06 20:09 54.95903 8.15966 6523 ft 116 kts 234°
2026-05-06 20:10 54.95426 8.14818 6770 ft 118 kts 234°
2026-05-06 20:10 54.94944 8.13657 7025 ft 119 kts 235°
2026-05-06 20:10 54.94454 8.12497 7278 ft 119 kts 230°
2026-05-06 20:10 54.93753 8.11779 7535 ft 119 kts 189°
2026-05-06 20:11 54.92948 8.11932 7792 ft 118 kts 156°
2026-05-06 20:11 54.92282 8.12730 8053 ft 116 kts 139°
2026-05-06 20:11 54.91649 8.13636 8254 ft 121 kts 140°
2026-05-06 20:11 54.90986 8.14575 8430 ft 126 kts 140°
2026-05-06 20:12 54.90290 8.15566 8573 ft 133 kts 140°
2026-05-06 20:12 54.89561 8.16605 8718 ft 138 kts 140°
2026-05-06 20:12 54.88808 8.17680 8848 ft 142 kts 140°
2026-05-06 20:12 54.88032 8.18786 8954 ft 148 kts 140°
2026-05-06 20:13 54.87212 8.19951 8971 ft 156 kts 140°
2026-05-06 20:13 54.86353 8.21170 8978 ft 162 kts 140°
2026-05-06 20:13 54.85466 8.22427 8982 ft 167 kts 141°
2026-05-06 20:13 54.84561 8.23710 8983 ft 169 kts 140°
2026-05-06 20:14 54.83645 8.25009 8978 ft 170 kts 140°
2026-05-06 20:14 54.82736 8.26284 8973 ft 170 kts 142°
2026-05-06 20:14 54.81759 8.27432 8973 ft 170 kts 149°
2026-05-06 20:14 54.80749 8.28518 8975 ft 171 kts 147°
2026-05-06 20:15 54.79739 8.29633 8975 ft 172 kts 147°
2026-05-06 20:15 54.78723 8.30752 8972 ft 173 kts 147°
2026-05-06 20:15 54.77705 8.31869 8973 ft 174 kts 147°
2026-05-06 20:15 54.76683 8.32989 8972 ft 174 kts 147°
2026-05-06 20:16 54.75662 8.34108 8973 ft 174 kts 147°
2026-05-06 20:16 54.74639 8.35223 8970 ft 174 kts 147°
2026-05-06 20:16 54.73614 8.36340 8968 ft 174 kts 147°
2026-05-06 20:16 54.72585 8.37463 8969 ft 176 kts 147°
2026-05-06 20:17 54.71537 8.38575 8966 ft 177 kts 148°
2026-05-06 20:17 54.70499 8.39687 8965 ft 178 kts 147°
2026-05-06 20:17 54.69450 8.40836 8965 ft 179 kts 147°
2026-05-06 20:17 54.68495 8.42197 8966 ft 178 kts 127°
2026-05-06 20:18 54.67986 8.44119 8961 ft 177 kts 105°
2026-05-06 20:18 54.67567 8.46120 8964 ft 178 kts 111°
2026-05-06 20:18 54.67073 8.48081 8963 ft 178 kts 112°
2026-05-06 20:18 54.66584 8.50045 8962 ft 178 kts 112°
2026-05-06 20:19 54.66105 8.52014 8963 ft 178 kts 111°
2026-05-06 20:19 54.65631 8.53990 8958 ft 178 kts 111°
2026-05-06 20:19 54.65162 8.55965 8958 ft 178 kts 111°
2026-05-06 20:19 54.64695 8.57943 8957 ft 178 kts 111°
2026-05-06 20:20 54.64228 8.59920 8956 ft 178 kts 111°
2026-05-06 20:20 54.63761 8.61895 8952 ft 178 kts 111°
2026-05-06 20:20 54.63294 8.63869 8952 ft 177 kts 111°
2026-05-06 20:20 54.62834 8.65816 8953 ft 177 kts 111°
2026-05-06 20:21 54.62368 8.67783 8952 ft 177 kts 111°
2026-05-06 20:21 54.61888 8.69742 8948 ft 177 kts 115°
2026-05-06 20:21 54.61144 8.71431 8947 ft 179 kts 137°
2026-05-06 20:21 54.60231 8.72882 8946 ft 178 kts 134°
2026-05-06 20:22 54.59376 8.74431 8947 ft 178 kts 132°
2026-05-06 20:22 54.58525 8.75987 8948 ft 178 kts 132°
2026-05-06 20:22 54.57665 8.77528 8948 ft 178 kts 133°
2026-05-06 20:22 54.56800 8.79066 8949 ft 178 kts 133°
2026-05-06 20:23 54.55930 8.80597 8945 ft 179 kts 133°
2026-05-06 20:23 54.55060 8.82123 8949 ft 179 kts 133°
2026-05-06 20:23 54.54189 8.83651 8947 ft 179 kts 133°
2026-05-06 20:23 54.53316 8.85178 8943 ft 178 kts 133°
2026-05-06 20:24 54.52446 8.86696 8944 ft 177 kts 133°
2026-05-06 20:24 54.51581 8.88207 8942 ft 177 kts 133°
2026-05-06 20:24 54.50721 8.89710 8947 ft 176 kts 133°
2026-05-06 20:24 54.49871 8.91193 8947 ft 176 kts 133°
2026-05-06 20:25 54.49011 8.92696 8943 ft 176 kts 133°
2026-05-06 20:25 54.48072 8.94032 8941 ft 177 kts 154°
2026-05-06 20:25 54.46861 8.94381 8944 ft 178 kts 178°
2026-05-06 20:25 54.45623 8.94300 8940 ft 178 kts 184°
2026-05-06 20:26 54.44390 8.94119 8941 ft 178 kts 185°
2026-05-06 20:26 54.43157 8.93936 8942 ft 178 kts 184°
2026-05-06 20:26 54.41920 8.93779 8938 ft 178 kts 183°
2026-05-06 20:26 54.40685 8.93650 8940 ft 178 kts 182°
2026-05-06 20:27 54.39448 8.93544 8936 ft 178 kts 182°
2026-05-06 20:27 54.38209 8.93453 8943 ft 178 kts 181°
2026-05-06 20:27 54.36972 8.93372 8939 ft 178 kts 181°
2026-05-06 20:27 54.35732 8.93294 8938 ft 178 kts 181°
2026-05-06 20:28 54.34491 8.93218 8937 ft 178 kts 181°
2026-05-06 20:28 54.33268 8.93146 8936 ft 178 kts 181°
2026-05-06 20:28 54.32029 8.93072 8932 ft 178 kts 181°
2026-05-06 20:28 54.30788 8.92999 8934 ft 178 kts 181°
2026-05-06 20:29 54.29546 8.92927 8934 ft 178 kts 181°
2026-05-06 20:29 54.28307 8.92854 8931 ft 178 kts 181°
2026-05-06 20:29 54.27067 8.92782 8932 ft 178 kts 181°
2026-05-06 20:29 54.25826 8.92709 8935 ft 179 kts 181°
2026-05-06 20:30 54.24583 8.92636 8933 ft 179 kts 181°
2026-05-06 20:30 54.22094 8.92488 8931 ft 179 kts 181°
2026-05-06 20:30 54.20850 8.92416 8930 ft 179 kts 181°
2026-05-06 20:31 54.19607 8.92343 8929 ft 179 kts 181°
2026-05-06 20:31 54.18359 8.92271 8928 ft 179 kts 181°
2026-05-06 20:31 54.17115 8.92198 8928 ft 179 kts 181°
2026-05-06 20:31 54.15888 8.92125 8929 ft 179 kts 181°
2026-05-06 20:32 54.14648 8.92052 8926 ft 178 kts 181°
2026-05-06 20:32 54.13405 8.91981 8926 ft 179 kts 181°
2026-05-06 20:32 54.12159 8.91908 8927 ft 179 kts 181°
2026-05-06 20:32 54.10918 8.91836 8926 ft 178 kts 181°
2026-05-06 20:33 54.10097 8.91788 8927 ft 178 kts 181°
2026-05-06 20:33 54.08857 8.91715 8926 ft 178 kts 181°
2026-05-06 20:33 54.07617 8.91646 8925 ft 178 kts 181°
2026-05-06 20:33 54.06378 8.91573 8925 ft 178 kts 181°
2026-05-06 20:34 54.05139 8.91498 8928 ft 178 kts 181°
2026-05-06 20:34 54.03899 8.91425 8927 ft 178 kts 181°
2026-05-06 20:34 54.02662 8.91353 8926 ft 178 kts 181°
2026-05-06 20:34 54.01421 8.91281 8924 ft 178 kts 181°
2026-05-06 20:35 54.00179 8.91210 8923 ft 178 kts 181°
2026-05-06 20:35 53.98940 8.91140 8922 ft 178 kts 181°
2026-05-06 20:35 53.97704 8.91068 8923 ft 178 kts 181°
2026-05-06 20:35 53.96465 8.90996 8922 ft 178 kts 181°
2026-05-06 20:36 53.95244 8.90926 8922 ft 178 kts 181°
2026-05-06 20:36 53.94005 8.90854 8921 ft 178 kts 181°
2026-05-06 20:36 53.92769 8.90781 8922 ft 178 kts 181°
2026-05-06 20:36 53.91533 8.90709 8923 ft 178 kts 181°
2026-05-06 20:37 53.90296 8.90637 8923 ft 178 kts 181°
2026-05-06 20:37 53.89057 8.90566 8921 ft 178 kts 181°
2026-05-06 20:37 53.87820 8.90495 8922 ft 178 kts 181°
2026-05-06 20:37 53.86576 8.90424 8921 ft 178 kts 181°
2026-05-06 20:38 53.85337 8.90353 8921 ft 178 kts 181°
2026-05-06 20:38 53.84099 8.90282 8920 ft 178 kts 181°
2026-05-06 20:38 53.82876 8.90212 8921 ft 178 kts 181°
2026-05-06 20:38 53.81637 8.90140 8923 ft 178 kts 181°
2026-05-06 20:39 53.80398 8.90068 8918 ft 178 kts 181°
2026-05-06 20:39 53.79157 8.89997 8922 ft 178 kts 181°
2026-05-06 20:39 53.77918 8.89925 8922 ft 179 kts 181°
2026-05-06 20:39 53.76673 8.89855 8921 ft 178 kts 181°
2026-05-06 20:40 53.75439 8.89783 8921 ft 176 kts 181°
2026-05-06 20:40 53.74217 8.89711 8921 ft 175 kts 181°
2026-05-06 20:40 53.73004 8.89641 8919 ft 173 kts 181°
2026-05-06 20:40 53.71801 8.89570 8920 ft 173 kts 181°
2026-05-06 20:41 53.70602 8.89503 8921 ft 172 kts 181°
2026-05-06 20:41 53.69406 8.89437 8923 ft 172 kts 181°
2026-05-06 20:41 53.68214 8.89370 8922 ft 172 kts 181°
2026-05-06 20:41 53.67034 8.89302 8923 ft 172 kts 181°
2026-05-06 20:42 53.65842 8.89234 8925 ft 171 kts 181°
2026-05-06 20:42 53.64651 8.89167 8922 ft 171 kts 181°
2026-05-06 20:42 53.63459 8.89099 8919 ft 171 kts 181°
2026-05-06 20:42 53.62264 8.89030 8919 ft 173 kts 181°
2026-05-06 20:43 53.61047 8.88963 8921 ft 176 kts 181°
2026-05-06 20:43 53.59811 8.88894 8922 ft 179 kts 181°
2026-05-06 20:43 53.58561 8.88822 8919 ft 180 kts 181°
2026-05-06 20:43 53.57306 8.88749 8924 ft 181 kts 181°
2026-05-06 20:44 53.56045 8.88676 8922 ft 182 kts 181°
2026-05-06 20:44 53.54778 8.88604 8919 ft 182 kts 181°
2026-05-06 20:44 53.53509 8.88533 8921 ft 183 kts 181°
2026-05-06 20:44 53.52254 8.88463 8919 ft 183 kts 181°
2026-05-06 20:45 53.50984 8.88390 8919 ft 183 kts 181°
2026-05-06 20:45 53.49712 8.88318 8918 ft 183 kts 181°
2026-05-06 20:45 53.48439 8.88246 8917 ft 183 kts 181°
2026-05-06 20:45 53.47169 8.88174 8918 ft 183 kts 181°
2026-05-06 20:46 53.45897 8.88103 8918 ft 183 kts 181°
2026-05-06 20:46 53.44623 8.88030 8919 ft 183 kts 181°
2026-05-06 20:46 53.43347 8.87959 8922 ft 183 kts 181°
2026-05-06 20:46 53.42073 8.87887 8920 ft 183 kts 181°
2026-05-06 20:47 53.40800 8.87816 8923 ft 183 kts 181°
2026-05-06 20:47 53.39525 8.87744 8922 ft 183 kts 181°
2026-05-06 20:47 53.38250 8.87672 8917 ft 183 kts 181°
2026-05-06 20:47 53.36974 8.87600 8918 ft 183 kts 181°
2026-05-06 20:48 53.35717 8.87530 8919 ft 183 kts 181°
2026-05-06 20:48 53.34457 8.87234 8919 ft 184 kts 197°
2026-05-06 20:48 53.33302 8.86322 8920 ft 184 kts 206°
2026-05-06 20:48 53.32143 8.85418 8920 ft 184 kts 204°
2026-05-06 20:49 53.30975 8.84545 8921 ft 184 kts 204°
2026-05-06 20:49 53.29813 8.83670 8919 ft 183 kts 204°
2026-05-06 20:49 53.28655 8.82790 8920 ft 182 kts 205°
2026-05-06 20:49 53.27502 8.81908 8920 ft 182 kts 205°
2026-05-06 20:50 53.26349 8.81023 8922 ft 182 kts 205°
2026-05-06 20:50 53.25196 8.80137 8923 ft 183 kts 205°
2026-05-06 20:50 53.24040 8.79250 8923 ft 183 kts 205°
2026-05-06 20:50 53.22894 8.78370 8921 ft 183 kts 204°
2026-05-06 20:51 53.21729 8.77495 8922 ft 184 kts 201°
2026-05-06 20:51 53.20479 8.77096 8922 ft 183 kts 179°
2026-05-06 20:51 53.19208 8.77099 8922 ft 183 kts 181°
2026-05-06 20:51 53.17933 8.76993 8921 ft 183 kts 182°
2026-05-06 20:52 53.16657 8.76878 8920 ft 183 kts 182°
2026-05-06 20:52 53.15367 8.76774 8769 ft 191 kts 181°
2026-05-06 20:52 53.14004 8.76671 8515 ft 200 kts 181°
2026-05-06 20:52 53.12582 8.76572 8203 ft 208 kts 181°
2026-05-06 20:53 53.11124 8.76475 7893 ft 212 kts 181°
2026-05-06 20:53 53.09643 8.76380 7592 ft 214 kts 181°
2026-05-06 20:53 53.08152 8.76285 7289 ft 215 kts 181°
2026-05-06 20:53 53.06655 8.76186 6985 ft 215 kts 181°
2026-05-06 20:54 53.05231 8.75481 6677 ft 217 kts 212°
2026-05-06 20:54 53.04282 8.73564 6384 ft 217 kts 249°
2026-05-06 20:54 53.03946 8.71144 6074 ft 214 kts 262°
2026-05-06 20:54 53.03695 8.68726 5761 ft 212 kts 262°
2026-05-06 20:55 53.03439 8.66318 5446 ft 210 kts 261°
2026-05-06 20:55 53.03181 8.63969 5142 ft 208 kts 261°
2026-05-06 20:55 53.02913 8.61615 4830 ft 204 kts 261°
2026-05-06 20:55 53.02657 8.59383 4508 ft 189 kts 261°
2026-05-06 20:56 53.02411 8.57303 4193 ft 179 kts 261°
2026-05-06 20:56 53.02177 8.55349 4038 ft 163 kts 261°
2026-05-06 20:56 53.01963 8.53598 4011 ft 151 kts 261°
2026-05-06 20:56 53.01750 8.51838 4004 ft 159 kts 262°
2026-05-06 20:57 53.01532 8.49939 3710 ft 179 kts 263°
2026-05-06 20:57 53.01672 8.47859 3332 ft 187 kts 301°
2026-05-06 20:57 53.02583 8.46430 3059 ft 177 kts 343°
2026-05-06 20:57 53.03688 8.46430 3029 ft 153 kts 25°
2026-05-06 20:58 53.04386 8.47599 3012 ft 141 kts 66°
2026-05-06 20:58 53.04389 8.49179 3002 ft 140 kts 103°
2026-05-06 20:58 53.04122 8.50697 3002 ft 135 kts 94°
2026-05-06 20:58 53.04061 8.52236 3001 ft 133 kts 86°
2026-05-06 20:59 53.04088 8.53774 2951 ft 136 kts 83°
2026-05-06 20:59 53.04145 8.55395 2761 ft 145 kts 83°
2026-05-06 20:59 53.04192 8.57111 2550 ft 152 kts 84°
2026-05-06 20:59 53.04248 8.58891 2324 ft 155 kts 82°
2026-05-06 21:00 53.04343 8.60689 2089 ft 156 kts 81°
2026-05-06 21:00 53.04450 8.62467 1863 ft 154 kts 81°
2026-05-06 21:00 53.04519 8.64198 1604 ft 150 kts 84°
2026-05-06 21:00 53.04529 8.65917 1340 ft 146 kts 86°
2026-05-06 21:01 53.04526 8.67516 1117 ft 128 kts 85°
2026-05-06 21:01 53.04537 8.68835 928 ft 104 kts 84°
2026-05-06 21:01 53.04558 8.69984 794 ft 98 kts 84°
2026-05-06 21:01 53.04587 8.71120 682 ft 98 kts 86°
2026-05-06 21:02 53.04593 8.72240 569 ft 96 kts 87°
2026-05-06 21:02 53.04590 8.73346 473 ft 95 kts 87°
2026-05-06 21:02 53.04588 8.74488 374 ft 104 kts 86°
2026-05-06 21:02 53.04621 8.75671 235 ft 99 kts 86°
2026-05-06 21:03 53.04644 8.76807 140 ft 98 kts 84°
2026-05-06 21:03 53.04669 8.77937 29 ft 95 kts 84°
2026-05-06 21:03 53.04690 8.78828 17 ft 60 kts 83°
2026-05-06 21:03 53.04707 8.79399 16 ft 42 kts 88°
2026-05-06 21:04 53.04713 8.79825 16 ft 33 kts 88°
2026-05-06 21:04 53.04819 8.79963 16 ft 18 kts 341°
2026-05-06 21:04 53.04877 8.79850 16 ft 10 kts 265°
2026-05-06 21:04 53.04873 8.79737 16 ft 9 kts 269°
2026-05-06 21:05 53.04870 8.79625 16 ft 11 kts 266°
2026-05-06 21:05 53.04867 8.79471 16 ft 15 kts 265°
2026-05-06 21:05 53.04861 8.79251 16 ft 24 kts 268°
2026-05-06 21:05 53.04854 8.78950 16 ft 25 kts 267°
2026-05-06 21:06 53.04850 8.78684 16 ft 21 kts 273°
2026-05-06 21:06 53.04847 8.78460 16 ft 18 kts 272°
2026-05-06 21:06 53.04887 8.78319 16 ft 13 kts 319°
2026-05-06 21:06 53.04964 8.78254 16 ft 13 kts 342°
2026-05-06 21:07 53.05055 8.78145 16 ft 13 kts 301°
2026-05-06 21:07 53.05025 8.78122 16 ft 0 kts 168°